Location: Eldred Sherwood Park Lake Dam
(42.9416°N, 93.5655°W)
Time: 01:29:10
(UTC+00:00)

Tiangong - Visible Passes

Search period start: 16 October 2024 00:00
Search period end: 26 October 2024 00:00
Orbit: 371 x 376 km, 41.5° (Epoch: 15 October)

Date Brightness Start Highest point End Pass type
(mag) Time Alt. Az. Time Alt. Az. Time Alt. Az.
16 Oct 0.5 11:53:23 10° SSW 11:55:28 17° SSE 11:57:33 10° ESE visible
18 Oct -0.1 11:22:47 10° SSW 11:25:20 23° SSE 11:27:54 10° E visible
19 Oct 0.6 10:22:43 14° SE 10:22:43 14° SE 10:23:57 10° ESE visible
19 Oct -1.3 11:55:18 10° WSW 11:58:18 46° SSE 12:01:18 10° E visible
20 Oct -0.9 10:54:31 30° S 10:54:57 32° SSE 10:57:45 10° E visible
21 Oct -1.8 11:26:09 23° WSW 11:27:49 56° S 11:30:51 10° E visible
22 Oct 0.1 10:25:40 24° ESE 10:25:40 24° ESE 10:27:14 10° E visible
22 Oct -2.0 11:57:39 10° W 12:00:42 67° S 12:03:47 10° E visible
23 Oct -2.1 10:57:04 64° S 10:57:04 64° S 11:00:07 10° E visible
24 Oct -2.0 11:28:22 28° W 11:29:48 63° S 11:32:51 10° ESE visible
25 Oct 0.1 10:27:38 24° ESE 10:27:38 24° ESE 10:29:04 10° E visible
25 Oct -1.4 11:59:35 11° W 12:02:23 40° SSW 12:05:19 10° SE visible
